Location: Keppel Henge
(44.7900°N, 80.9447°W)
Time: 01:52:59
(UTC-04:00)

Vanguard 2 Rocket - Visible Passes

Search period start: 18 October 2017 00:00
Search period end: 28 October 2017 00:00
Orbit: 555 x 3327 km, 32.9° (Epoch: 16 October)

Date Brightness Start Highest point End Pass type
(mag) Time Alt. Az. Time Alt. Az. Time Alt. Az.
18 Oct 10.7 20:12:11 10° WSW 20:22:23 23° SSW 20:35:27 10° SSE visible
19 Oct 10.5 19:11:55 10° WSW 19:21:48 28° SSW 19:35:36 10° SSE visible
19 Oct 11.1 21:34:10 10° SW 21:36:58 11° SW 21:39:51 10° SSW visible
20 Oct 11.0 20:29:09 10° WSW 20:36:27 15° SW 20:45:07 10° S visible
21 Oct 10.8 19:27:50 10° WSW 19:36:00 20° SSW 19:46:38 10° S visible
23 Oct 11.1 19:46:07 10° SW 19:50:15 12° SSW 19:54:55 10° SSW visible
24 Oct 10.9 18:44:10 10° WSW 18:50:02 15° SSW 18:57:24 10° S visible
